Location: Bocianicha
(51.5066°N, 19.2563°E)
Time: 13:20:45
(UTC+00:00)

Cosmos 1975 Rocket - Pass Details

Date: 15 June 2025
Orbit: 597 x 628 km, 82.5° (Epoch: 18 July)

Event Time Altitude Azimuth Distance (km) Brightness Sun altitude
Exits shadow 00:52:18 - 174° (S) 2,177 5.4 -10.0°
Reaches altitude 10° 00:52:45 10° 173° (S) 2,002 5.2 -10.0°
Maximum altitude 00:57:05 56° 95° (E) 749 3.6 -9.6°
Drops below altitude 10° 01:01:27 10° 18° (NNE) 2,009 7.2 -9.3°
Sets 01:03:43 0° 14° (NNE) 2,917 8.1 -9.1°
